When you browse on this site, cookies collect data to enhance your experience and personalize the content and advertising you see.
Visit our Privacy Policy to learn more. By continuing to use the site, you agree to this use of cookies and data.
  • In Hungary
  • List of Countries
  • For 7 days
  • Water Temperature
  • Satellite Maps
  • Weather Map
  • News
  • Weather Widgets
  • user-avatar
    Login

    Hourly Weather Canoas

    Today, 21 July, Sunday

    Time Temperature Precipitation Wind Pressure Humidity
    00:00 +20°C° 0 mm 1 mps 761 mmHg 80%
    01:00 +20°C° 0 mm 1 mps 761 mmHg 79%
    02:00 +20°C° 0 mm 1 mps 760 mmHg 77%
    03:00 +19°C° 0 mm 1 mps 760 mmHg 76%
    04:00 +19°C° 0 mm 1 mps 760 mmHg 76%
    05:00 +19°C° 0 mm 1 mps 760 mmHg 76%
    06:00 +19°C° 0 mm 1 mps 760 mmHg 76%
    07:00 +20°C° 0 mm 1 mps 760 mmHg 73%
    08:00 +20°C° 0 mm 1 mps 761 mmHg 71%
    09:00 +21°C° 0 mm 1 mps 761 mmHg 68%
    10:00 +23°C° 0 mm 2 mps 761 mmHg 61%
    11:00 +26°C° 0 mm 2 mps 760 mmHg 53%
    12:00 +28°C° 0 mm 2 mps 760 mmHg 46%
    13:00 +28°C° 0 mm 2 mps 759 mmHg 45%
    14:00 +29°C° 0 mm 2 mps 759 mmHg 44%
    15:00 +30°C° 0 mm 2 mps 758 mmHg 43%
    16:00 +28°C° 0 mm 2 mps 758 mmHg 49%
    17:00 +27°C° 0 mm 2 mps 758 mmHg 56%
    18:00 +25°C° 0 mm 2 mps 758 mmHg 62%
    19:00 +24°C° 0 mm 1 mps 758 mmHg 65%
    20:00 +23°C° 0 mm 1 mps 758 mmHg 68%
    21:00 +22°C° 0 mm 1 mps 758 mmHg 71%
    22:00 +22°C° 0 mm 1 mps 758 mmHg 70%
    23:00 +22°C° 0 mm 1 mps 759 mmHg 70%

    Tomorrow, 22 July, Monday

    Time Temperature Precipitation Wind Pressure Humidity
    00:00 +22°C° 0 mm 1 mps 759 mmHg 70%
    01:00 +21°C° 0 mm 1 mps 759 mmHg 71%
    02:00 +21°C° 0 mm 1 mps 759 mmHg 72%
    03:00 +20°C° 0 mm 1 mps 759 mmHg 73%
    04:00 +20°C° 0 mm 1 mps 759 mmHg 73%
    05:00 +20°C° 0 mm 1 mps 759 mmHg 73%
    06:00 +20°C° 0 mm 1 mps 759 mmHg 74%
    07:00 +21°C° 0 mm 1 mps 759 mmHg 71%
    08:00 +21°C° 0 mm 1 mps 760 mmHg 68%
    09:00 +22°C° 0 mm 1 mps 760 mmHg 66%
    10:00 +24°C° 0 mm 1 mps 760 mmHg 59%
    11:00 +26°C° 0 mm 2 mps 760 mmHg 52%
    12:00 +28°C° 0 mm 3 mps 760 mmHg 45%
    13:00 +27°C° 0 mm 2 mps 760 mmHg 51%
    14:00 +26°C° 0 mm 2 mps 759 mmHg 56%
    15:00 +25°C° 0 mm 1 mps 759 mmHg 61%
    16:00 +25°C° 0.1 mm 1 mps 759 mmHg 64%
    17:00 +24°C° 0.1 mm 1 mps 759 mmHg 66%
    18:00 +23°C° 0.1 mm 1 mps 759 mmHg 69%
    19:00 +23°C° 0 mm 1 mps 760 mmHg 70%
    20:00 +23°C° 0 mm 1 mps 760 mmHg 71%
    21:00 +22°C° 0 mm 1 mps 760 mmHg 72%
    22:00 +22°C° 0.3 mm 1 mps 760 mmHg 74%
    23:00 +22°C° 0.3 mm 1 mps 760 mmHg 77%

    Day after tomorrow, 23 July, Tuesday

    Time Temperature Precipitation Wind Pressure Humidity
    00:00 +21°C° 0.3 mm 1 mps 760 mmHg 79%
    01:00 +21°C° 0 mm 1 mps 760 mmHg 81%
    02:00 +19°C° 0 mm 0 mps 760 mmHg 83%
    03:00 +18°C° 0 mm 0 mps 760 mmHg 85%
    04:00 +18°C° 0.1 mm 0 mps 760 mmHg 86%
    05:00 +20°C° 0.1 mm 1 mps 760 mmHg 87%
    06:00 +20°C° 0.1 mm 1 mps 760 mmHg 88%
    07:00 +20°C° 0.1 mm 1 mps 760 mmHg 88%
    08:00 +20°C° 0.1 mm 1 mps 761 mmHg 88%
    09:00 +20°C° 0.1 mm 1 mps 761 mmHg 88%
    10:00 +20°C° 0.2 mm 1 mps 761 mmHg 88%
    11:00 +19°C° 0.2 mm 2 mps 761 mmHg 87%
    12:00 +19°C° 0.2 mm 2 mps 761 mmHg 86%
    13:00 +20°C° 2.4 mm 1 mps 761 mmHg 87%
    14:00 +20°C° 2.4 mm 1 mps 760 mmHg 89%
    15:00 +20°C° 2.4 mm 1 mps 760 mmHg 90%
    16:00 +19°C° 0.3 mm 1 mps 760 mmHg 91%
    17:00 +19°C° 0.3 mm 1 mps 759 mmHg 91%
    18:00 +19°C° 0.3 mm 1 mps 759 mmHg 92%
    19:00 +19°C° 0.2 mm 1 mps 760 mmHg 92%
    20:00 +19°C° 0.2 mm 1 mps 760 mmHg 92%
    21:00 +19°C° 0.2 mm 1 mps 760 mmHg 92%
    22:00 +19°C° 0.1 mm 1 mps 760 mmHg 93%
    23:00 +19°C° 0.1 mm 1 mps 760 mmHg 93%

    24 July, Wednesday

    Time Temperature Precipitation Wind Pressure Humidity
    00:00 +18°C° 0.1 mm 2 mps 760 mmHg 94%
    01:00 +19°C° 0.3 mm 1 mps 760 mmHg 94%
    02:00 +19°C° 0.3 mm 1 mps 760 mmHg 94%
    03:00 +19°C° 0.3 mm 1 mps 760 mmHg 94%
    04:00 +18°C° 2.5 mm 1 mps 761 mmHg 94%
    05:00 +16°C° 2.5 mm 0 mps 761 mmHg 94%
    06:00 +16°C° 2.5 mm 0 mps 762 mmHg 94%
    07:00 +18°C° 1.4 mm 1 mps 762 mmHg 94%
    08:00 +17°C° 1.4 mm 2 mps 763 mmHg 94%
    09:00 +17°C° 1.4 mm 2 mps 763 mmHg 94%
    10:00 +17°C° 2 mm 2 mps 763 mmHg 93%
    11:00 +17°C° 2 mm 2 mps 763 mmHg 92%
    12:00 +16°C° 2 mm 3 mps 764 mmHg 92%
    13:00 +16°C° 1.7 mm 3 mps 764 mmHg 92%
    14:00 +16°C° 1.7 mm 3 mps 763 mmHg 92%
    15:00 +15°C° 1.7 mm 4 mps 763 mmHg 91%
    16:00 +15°C° 1.2 mm 4 mps 764 mmHg 91%
    17:00 +15°C° 1.2 mm 4 mps 764 mmHg 91%
    18:00 +14°C° 1.2 mm 4 mps 765 mmHg 91%
    19:00 +14°C° 1.2 mm 4 mps 765 mmHg 91%
    20:00 +14°C° 1.2 mm 4 mps 766 mmHg 91%
    21:00 +14°C° 1.2 mm 5 mps 766 mmHg 90%
    22:00 +14°C° 0.7 mm 4 mps 766 mmHg 90%
    23:00 +14°C° 0.7 mm 4 mps 767 mmHg 90%

    25 July, Thursday

    Time Temperature Precipitation Wind Pressure Humidity
    00:00 +13°C° 0.7 mm 4 mps 767 mmHg 89%
    01:00 +13°C° 1.2 mm 4 mps 767 mmHg 90%
    02:00 +13°C° 1.2 mm 4 mps 767 mmHg 90%
    03:00 +13°C° 1.2 mm 4 mps 767 mmHg 90%
    04:00 +13°C° 1.1 mm 4 mps 767 mmHg 90%
    05:00 +13°C° 1.1 mm 4 mps 767 mmHg 90%
    06:00 +13°C° 1.1 mm 4 mps 766 mmHg 89%
    07:00 +13°C° 1.9 mm 4 mps 767 mmHg 90%
    08:00 +13°C° 1.9 mm 4 mps 767 mmHg 90%
    09:00 +13°C° 1.9 mm 4 mps 767 mmHg 90%
    10:00 +13°C° 2.3 mm 4 mps 767 mmHg 90%
    11:00 +13°C° 2.3 mm 4 mps 767 mmHg 90%
    12:00 +13°C° 2.3 mm 4 mps 767 mmHg 90%
    13:00 +13°C° 3.3 mm 4 mps 767 mmHg 91%
    14:00 +13°C° 3.3 mm 4 mps 767 mmHg 91%
    15:00 +13°C° 3.3 mm 4 mps 766 mmHg 91%
    16:00 +13°C° 2.2 mm 4 mps 767 mmHg 91%
    17:00 +13°C° 2.2 mm 3 mps 767 mmHg 91%
    18:00 +13°C° 2.2 mm 3 mps 767 mmHg 92%
    19:00 +13°C° 1.5 mm 3 mps 767 mmHg 91%
    20:00 +13°C° 1.5 mm 4 mps 767 mmHg 91%
    21:00 +13°C° 1.5 mm 4 mps 767 mmHg 91%
    22:00 +13°C° 0.8 mm 4 mps 767 mmHg 91%
    23:00 +14°C° 0.8 mm 4 mps 767 mmHg 91%

    26 July, Friday

    Time Temperature Precipitation Wind Pressure Humidity
    00:00 +14°C° 0.8 mm 4 mps 766 mmHg 91%
    01:00 +14°C° 1.6 mm 4 mps 766 mmHg 91%
    02:00 +14°C° 1.6 mm 3 mps 766 mmHg 92%
    03:00 +14°C° 1.6 mm 3 mps 765 mmHg 92%
    04:00 +14°C° 2.6 mm 4 mps 765 mmHg 92%
    05:00 +14°C° 2.6 mm 4 mps 765 mmHg 92%
    06:00 +14°C° 2.6 mm 4 mps 765 mmHg 93%
    07:00 +14°C° 1.1 mm 4 mps 765 mmHg 92%
    08:00 +14°C° 1.1 mm 4 mps 765 mmHg 91%
    09:00 +14°C° 1.1 mm 4 mps 765 mmHg 90%
    10:00 +14°C° 0.3 mm 4 mps 765 mmHg 89%
    11:00 +14°C° 0.3 mm 4 mps 765 mmHg 89%
    12:00 +14°C° 0.3 mm 4 mps 765 mmHg 88%
    13:00 +14°C° 0.1 mm 4 mps 765 mmHg 88%
    14:00 +14°C° 0.1 mm 3 mps 764 mmHg 87%
    15:00 +14°C° 0.1 mm 3 mps 764 mmHg 87%
    16:00 +14°C° 0.1 mm 3 mps 764 mmHg 87%
    17:00 +14°C° 0.1 mm 3 mps 764 mmHg 87%
    18:00 +14°C° 0.1 mm 3 mps 764 mmHg 87%
    19:00 +14°C° 0.1 mm 2 mps 764 mmHg 88%
    20:00 +14°C° 0.1 mm 2 mps 764 mmHg 88%
    21:00 +14°C° 0.1 mm 2 mps 765 mmHg 89%
    22:00 +14°C° 0.1 mm 2 mps 765 mmHg 89%
    23:00 +14°C° 0.1 mm 2 mps 765 mmHg 89%
    Show more